WXM80 ListenWXM80 Stop

You find our weather info also at:

UK Metoffice

WeatherCloud

Weather Underground

Northeastern Weather Network

AWEKAS

Citizen Weather Observer Program (CWOP)

HAMweather, WeatherForYou, PWS Weather


Weather Underground History page Text

Daily Summary for May 24, 2017 Units:  Metric    English   Both
« Previous Day
Next Day »
Daily Weekly Monthly Yearly Custom
  High: Low: Average:
Temperature: 21.2 °C 13.3 °C 16.2 °C
Dew Point: 16.6 °C 10.6 °C 12.9 °C
Humidity: 95 % 61 % 82 %
Wind Speed: 9.7 km/h 0 km/h 1.6 km/h
Wind Gust: 16.1 km/h - -
Wind:- - ENE
Pressure: 1009 hPa 1005.3 hPa -
Precipitation: 0.51 mm    
Historical Graphs
 
 
Tabular Data for May 24, 2017
Time Temperature Dew Point Pressure Wind Wind Speed Wind Gust Humidity Rainfall Rate (Hourly)
00:02 15 °C 10.8 °C 1007.3 hPa Calm     76 % 0 mm
00:07 14.9 °C 10.7 °C 1007.3 hPa Calm     76 % 0 mm
00:12 14.9 °C 10.7 °C 1007.3 hPa Calm     76 % 0 mm
00:17 14.8 °C 10.7 °C 1007.3 hPa Calm     76 % 0 mm
00:22 14.8 °C 10.6 °C 1007.3 hPa Calm     76 % 0 mm
00:27 14.7 °C 10.9 °C 1007.3 hPa Calm     78 % 0 mm
00:32 14.7 °C 10.9 °C 1007.3 hPa Calm     78 % 0 mm
00:37 14.6 °C 11 °C 1007.3 hPa Calm     79 % 0 mm
00:42 14.6 °C 10.9 °C 1007.3 hPa Calm     79 % 0 mm
00:47 14.5 °C 10.9 °C 1007.3 hPa Calm     79 % 0 mm
00:52 14.4 °C 10.8 °C 1007 hPa Calm     79 % 0 mm
00:58 14.4 °C 11 °C 1007 hPa Calm     80 % 0 mm
01:03 14.3 °C 10.9 °C 1007 hPa Calm     80 % 0 mm
01:08 14.3 °C 10.9 °C 1006.7 hPa Calm     80 % 0 mm
01:13 14.3 °C 11.1 °C 1006.7 hPa Calm     81 % 0 mm
01:18 14.3 °C 11.1 °C 1006.3 hPa Calm     81 % 0 mm
01:23 14.2 °C 11 °C 1006.3 hPa Calm     81 % 0 mm
01:28 14.2 °C 10.9 °C 1006.3 hPa Calm     81 % 0 mm
01:33 14.2 °C 11.1 °C 1006.3 hPa Calm     82 % 0 mm
01:38 14.1 °C 11.1 °C 1006.3 hPa Calm     82 % 0 mm
01:43 14.1 °C 11.1 °C 1006.3 hPa Calm     82 % 0 mm
01:53 14 °C 11.2 °C 1006.3 hPa Calm     83 % 0 mm
01:58 14 °C 11.2 °C 1006.3 hPa Calm     83 % 0 mm
02:03 13.9 °C 11.3 °C 1006.3 hPa Calm     84 % 0 mm
02:08 13.9 °C 11.3 °C 1006.3 hPa Calm     84 % 0 mm
02:13 13.9 °C 11.2 °C 1006.3 hPa Calm     84 % 0 mm
02:18 13.9 °C 11.2 °C 1006.3 hPa Calm     84 % 0 mm
02:21 13.9 °C 11.2 °C 1006.3 hPa Calm     84 % 0 mm
02:26 13.8 °C 11.3 °C 1006.3 hPa Calm     85 % 0 mm
02:31 13.8 °C 11.3 °C 1006.3 hPa Calm     85 % 0 mm
02:36 13.8 °C 11.3 °C 1006.3 hPa Calm     85 % 0 mm
02:41 13.8 °C 11.3 °C 1006.3 hPa Calm     85 % 0 mm
02:46 13.8 °C 11.5 °C 1006.3 hPa Calm     86 % 0 mm
02:51 13.8 °C 11.5 °C 1006.3 hPa Calm     86 % 0 mm
02:56 13.8 °C 11.5 °C 1006.3 hPa Calm     86 % 0 mm
03:01 13.8 °C 11.7 °C 1006.3 hPa Calm     87 % 0 mm
03:02 13.8 °C 11.7 °C 1006.3 hPa Calm     87 % 0 mm
03:07 13.8 °C 11.7 °C 1006.3 hPa Calm     87 % 0 mm
03:12 13.8 °C 11.7 °C 1006.3 hPa Calm     87 % 0 mm
03:17 13.8 °C 11.7 °C 1006.3 hPa Calm     87 % 0 mm
03:22 13.8 °C 11.7 °C 1006.3 hPa Calm     87 % 0 mm
03:27 13.8 °C 11.7 °C 1006.3 hPa Calm     87 % 0 mm
03:32 13.8 °C 11.7 °C 1006.3 hPa Calm     87 % 0 mm
03:37 13.8 °C 11.5 °C 1006.3 hPa Calm     86 % 0 mm
03:42 13.8 °C 11.5 °C 1006.3 hPa Calm     86 % 0 mm
03:47 13.8 °C 11.5 °C 1006.3 hPa Calm     86 % 0 mm
03:52 13.8 °C 11.5 °C 1006.3 hPa Calm     86 % 0 mm
03:57 13.8 °C 11.5 °C 1006 hPa Calm     86 % 0 mm
04:02 13.8 °C 11.5 °C 1006.3 hPa Calm     86 % 0 mm
04:08 13.8 °C 11.5 °C 1006 hPa Calm     86 % 0 mm
04:13 13.8 °C 11.7 °C 1006 hPa Calm     87 % 0 mm
04:18 13.8 °C 11.7 °C 1005.6 hPa Calm     87 % 0 mm
04:23 13.8 °C 11.7 °C 1005.6 hPa Calm     87 % 0 mm
04:28 13.8 °C 11.7 °C 1005.6 hPa Calm     87 % 0 mm
04:33 13.8 °C 11.8 °C 1005.6 hPa Calm     88 % 0 mm
04:38 13.8 °C 11.8 °C 1005.6 hPa Calm     88 % 0 mm
04:43 13.8 °C 11.8 °C 1005.6 hPa Calm     88 % 0 mm
04:48 13.7 °C 11.8 °C 1005.6 hPa Calm     88 % 0 mm
04:53 13.7 °C 11.8 °C 1005.6 hPa Calm     88 % 0 mm
04:58 13.7 °C 11.7 °C 1005.6 hPa Calm     88 % 0 mm
05:03 13.7 °C 11.7 °C 1005.6 hPa Calm     88 % 0 mm
05:08 13.6 °C 11.8 °C 1005.6 hPa Calm     89 % 0 mm
05:14 13.6 °C 11.8 °C 1006 hPa Calm     89 % 0 mm
05:19 13.6 °C 11.8 °C 1005.6 hPa Calm     89 % 0 mm
05:24 13.6 °C 11.9 °C 1005.3 hPa Calm     90 % 0 mm
05:29 13.5 °C 11.9 °C 1005.6 hPa Calm     90 % 0 mm
05:34 13.4 °C 11.8 °C 1005.6 hPa Calm     90 % 0 mm
05:39 13.4 °C 12 °C 1005.3 hPa Calm     91 % 0 mm
05:44 13.4 °C 12 °C 1005.3 hPa Calm     91 % 0 mm
05:49 13.4 °C 11.9 °C 1005.6 hPa Calm     91 % 0.25 mm
05:54 13.3 °C 11.9 °C 1005.3 hPa Calm     91 % 0.25 mm
05:59 13.3 °C 12.1 °C 1005.3 hPa Calm     92 % 0.25 mm
06:04 13.3 °C 12.1 °C 1005.3 hPa Calm     92 % 0.25 mm
06:09 13.3 °C 12.1 °C 1005.6 hPa Calm     92 % 0.25 mm
06:14 13.3 °C 12.1 °C 1005.3 hPa Calm     92 % 0.25 mm
06:19 13.3 °C 12 °C 1005.3 hPa Calm     92 % 0.25 mm
06:24 13.3 °C 12.2 °C 1005.3 hPa Calm     93 % 0.25 mm
06:29 13.3 °C 12.2 °C 1005.3 hPa NE 1.3 km/h 3.7 km/h 93 % 0.51 mm
06:34 13.3 °C 12.2 °C 1005.6 hPa Calm     93 % 0.51 mm
06:39 13.3 °C 12.2 °C 1005.6 hPa NE 1.1 km/h 3.7 km/h 93 % 0.51 mm
06:44 13.3 °C 12.2 °C 1005.6 hPa NE 0.3 km/h 3.7 km/h 93 % 0.51 mm
06:49 13.4 °C 12.3 °C 1006 hPa ENE 1.1 km/h 3.7 km/h 93 % 0.25 mm
06:54 13.4 °C 12.3 °C 1006 hPa Calm     93 % 0.25 mm
06:59 13.4 °C 12.3 °C 1006 hPa Calm   1.9 km/h 93 % 0.25 mm
07:04 13.4 °C 12.3 °C 1006 hPa Calm   1.9 km/h 93 % 0.25 mm
07:09 13.5 °C 12.6 °C 1006.3 hPa NNE 1.8 km/h 5.6 km/h 94 % 0.25 mm
07:14 13.6 °C 12.6 °C 1006.3 hPa NNE 1.3 km/h 1.9 km/h 94 % 0.25 mm
07:19 13.7 °C 12.7 °C 1006 hPa Calm   1.9 km/h 94 % 0.25 mm
07:24 13.7 °C 12.8 °C 1006 hPa NNE 1 km/h 3.7 km/h 94 % 0.25 mm
07:29 13.8 °C 12.8 °C 1006 hPa NNE 1 km/h 3.7 km/h 94 % 0 mm
07:34 13.8 °C 13.1 °C 1006 hPa NNE 1.4 km/h 3.7 km/h 95 % 0 mm
07:39 13.9 °C 13.2 °C 1006 hPa NE 3.5 km/h 7.4 km/h 95 % 0 mm
07:44 14.1 °C 13.3 °C 1006 hPa NE 1.9 km/h 5.6 km/h 95 % 0 mm
07:49 14.1 °C 13.3 °C 1006 hPa ENE 0.3 km/h 1.9 km/h 95 % 0 mm
07:54 14.2 °C 13.4 °C 1005.6 hPa ENE 3.9 km/h 6.4 km/h 95 % 0 mm
07:59 14.3 °C 13.5 °C 1005.6 hPa ENE 3.5 km/h 7.4 km/h 95 % 0 mm
08:04 14.4 °C 13.4 °C 1005.6 hPa NE 1.4 km/h 5.6 km/h 94 % 0 mm
08:09 14.6 °C 13.8 °C 1006 hPa North 0.6 km/h 3.7 km/h 95 % 0 mm
08:14 14.7 °C 13.9 °C 1006 hPa ENE 3.4 km/h 7.4 km/h 95 % 0 mm
08:19 14.8 °C 13.8 °C 1006 hPa ENE 1.3 km/h 3.7 km/h 94 % 0 mm
08:24 14.8 °C 13.9 °C 1006 hPa NE 0.5 km/h 3.7 km/h 94 % 0 mm
08:29 15 °C 14.1 °C 1006 hPa North 1.9 km/h 5.6 km/h 94 % 0 mm
08:35 15.2 °C 14.2 °C 1006 hPa ENE 4.8 km/h 5.6 km/h 94 % 0 mm
08:40 15.3 °C 14.3 °C 1006 hPa ENE 1.6 km/h 6.4 km/h 94 % 0 mm
08:45 15.4 °C 14.5 °C 1006 hPa NNE 3.4 km/h 5.6 km/h 94 % 0 mm
08:50 15.6 °C 14.6 °C 1006 hPa NNE 2.7 km/h 5.6 km/h 94 % 0 mm
08:55 15.6 °C 14.7 °C 1006 hPa NE 3.7 km/h 6.4 km/h 94 % 0 mm
09:00 15.7 °C 14.6 °C 1006 hPa NNE 5.6 km/h 9.7 km/h 93 % 0 mm
09:05 15.7 °C 14.4 °C 1006 hPa NNE 6.6 km/h 11.1 km/h 92 % 0 mm
09:10 15.7 °C 14.4 °C 1006 hPa NNE 2.7 km/h 7.4 km/h 92 % 0 mm
09:15 15.7 °C 14.6 °C 1006.3 hPa NE 1.9 km/h 5.6 km/h 93 % 0 mm
09:20 15.8 °C 14.5 °C 1006.3 hPa NE 3.9 km/h 5.6 km/h 92 % 0 mm
09:25 15.9 °C 14.7 °C 1006.3 hPa ENE 3.9 km/h 6.4 km/h 92 % 0 mm
09:30 16.1 °C 14.8 °C 1006.3 hPa ENE 3.4 km/h 7.4 km/h 92 % 0 mm
09:35 16.2 °C 14.9 °C 1006.3 hPa NE 4 km/h 9.3 km/h 92 % 0 mm
09:40 16.4 °C 14.9 °C 1006.3 hPa NE 3.7 km/h 5.6 km/h 91 % 0 mm
09:45 16.6 °C 14.9 °C 1006.7 hPa NNE 2.9 km/h 5.6 km/h 90 % 0 mm
09:50 16.7 °C 14.8 °C 1006.7 hPa ENE 4.5 km/h 7.4 km/h 89 % 0 mm
09:55 16.8 °C 14.8 °C 1006.3 hPa North 2.6 km/h 5.6 km/h 88 % 0 mm
10:00 16.8 °C 14.7 °C 1006.7 hPa NNE 2.1 km/h 5.6 km/h 87 % 0 mm
10:03 16.9 °C 14.7 °C 1006.7 hPa NNE 2.6 km/h 5.6 km/h 87 % 0 mm
10:08 16.9 °C 14.6 °C 1006.3 hPa NE 2.1 km/h 5.6 km/h 86 % 0 mm
10:13 16.9 °C 14.2 °C 1006.3 hPa ENE 4.2 km/h 9.3 km/h 84 % 0 mm
10:18 16.8 °C 14.1 °C 1006.3 hPa ENE 6.1 km/h 11.1 km/h 84 % 0 mm
10:23 16.7 °C 13.6 °C 1006.7 hPa NE 3.9 km/h 11.1 km/h 82 % 0 mm
10:28 16.6 °C 13.7 °C 1006.7 hPa East 1 km/h 5.6 km/h 83 % 0 mm
10:34 16.6 °C 13.7 °C 1006.3 hPa ENE 3.9 km/h 5.6 km/h 83 % 0 mm
10:39 16.5 °C 13.4 °C 1006.7 hPa ENE 1.3 km/h 3.7 km/h 82 % 0 mm
10:43 16.4 °C 13.3 °C 1006.7 hPa NE 2.3 km/h 5.6 km/h 82 % 0 mm
10:49 16.4 °C 13.6 °C 1006.7 hPa ENE 0.8 km/h 1.9 km/h 83 % 0 mm
10:53 16.6 °C 13.8 °C 1006.7 hPa ENE 0.5 km/h 1.9 km/h 84 % 0 mm
10:59 16.8 °C 14.1 °C 1006.7 hPa ENE 0.6 km/h 4.8 km/h 84 % 0 mm
11:04 16.9 °C 14.2 °C 1006.7 hPa NE 0.3 km/h 1.9 km/h 84 % 0 mm
11:09 17.1 °C 14.3 °C 1006.7 hPa NE 0.3 km/h 1.9 km/h 84 % 0 mm
11:14 17.1 °C 14.4 °C 1006.7 hPa NE 0.2 km/h 1.9 km/h 84 % 0 mm
11:19 17.2 °C 14.3 °C 1007 hPa NE 1.3 km/h 3.2 km/h 83 % 0 mm
11:24 17.2 °C 14.3 °C 1007 hPa Calm   1.9 km/h 83 % 0 mm
11:29 17.3 °C 14.6 °C 1007 hPa Calm   1.9 km/h 84 % 0 mm
11:34 17.3 °C 14.4 °C 1007.3 hPa NE 1.9 km/h 3.7 km/h 83 % 0 mm
11:39 17.2 °C 14.1 °C 1007.3 hPa Calm   1.9 km/h 82 % 0 mm
11:44 17.3 °C 14.4 °C 1007.3 hPa Calm   3.7 km/h 83 % 0 mm
11:49 17.4 °C 14.8 °C 1007.3 hPa Calm     85 % 0 mm
11:54 17.6 °C 14.8 °C 1007.3 hPa NE 0.3 km/h 3.7 km/h 84 % 0 mm
11:59 17.8 °C 14.8 °C 1007.3 hPa Calm     83 % 0 mm
12:05 18.1 °C 15.7 °C 1007 hPa Calm   1.9 km/h 86 % 0 mm
12:10 18.7 °C 15.8 °C 1007 hPa NE 0.6 km/h 1.9 km/h 83 % 0 mm
12:15 19.4 °C 15.8 °C 1006.7 hPa NE 2.1 km/h 3.7 km/h 80 % 0 mm
12:20 19.9 °C 16 °C 1006.7 hPa NE 1.9 km/h 3.7 km/h 78 % 0 mm
12:25 20.6 °C 16.6 °C 1006.7 hPa ENE 2.1 km/h 3.7 km/h 78 % 0 mm
12:30 20.9 °C 16.1 °C 1006.7 hPa East 2.1 km/h 5.6 km/h 74 % 0 mm
12:35 21.2 °C 16.3 °C 1006.7 hPa East 1.9 km/h 3.7 km/h 74 % 0 mm
12:40 21 °C 16 °C 1007 hPa ENE 1.1 km/h 1.9 km/h 73 % 0 mm
12:45 20.9 °C 16.1 °C 1007 hPa ENE 1.3 km/h 3.7 km/h 74 % 0 mm
12:50 20.7 °C 15 °C 1007 hPa ENE 8.9 km/h 14.8 km/h 70 % 0 mm
12:55 20.1 °C 14.7 °C 1007 hPa ENE 6.8 km/h 13 km/h 71 % 0 mm
13:00 20 °C 15.4 °C 1007 hPa East 1.6 km/h 3.7 km/h 75 % 0 mm
13:05 20.1 °C 14.8 °C 1007 hPa ENE 4 km/h 5.6 km/h 72 % 0 mm
13:10 19.9 °C 14.7 °C 1007 hPa ENE 2.6 km/h 5.6 km/h 72 % 0 mm
13:15 19.7 °C 14.9 °C 1007 hPa ENE 2.6 km/h 5.6 km/h 74 % 0 mm
13:20 19.8 °C 15.3 °C 1007 hPa East 3.5 km/h 5.6 km/h 75 % 0 mm
13:25 19.8 °C 14.4 °C 1007 hPa ENE 4.2 km/h 7.4 km/h 71 % 0 mm
13:30 19.9 °C 14.9 °C 1006.7 hPa ENE 4 km/h 5.6 km/h 73 % 0 mm
13:35 20.1 °C 14.9 °C 1006.7 hPa ENE 3.7 km/h 5.6 km/h 72 % 0 mm
13:40 20.1 °C 15.1 °C 1006.7 hPa East 4.2 km/h 5.6 km/h 73 % 0 mm
13:45 20 °C 15 °C 1006.7 hPa East 4.2 km/h 8 km/h 73 % 0 mm
13:50 20 °C 15.2 °C 1006.3 hPa ENE 3.5 km/h 5.6 km/h 74 % 0 mm
13:55 20.2 °C 15.2 °C 1006.3 hPa ENE 3.5 km/h 5.6 km/h 73 % 0 mm
14:00 20.2 °C 15.2 °C 1006.3 hPa East 3.4 km/h 5.6 km/h 73 % 0 mm
14:05 20.3 °C 15.1 °C 1006.3 hPa East 3.1 km/h 5.6 km/h 72 % 0 mm
14:10 20.4 °C 14.5 °C 1006.3 hPa ENE 3.5 km/h 5.6 km/h 69 % 0 mm
14:15 20.1 °C 13.8 °C 1006.3 hPa ENE 2.7 km/h 5.6 km/h 67 % 0 mm
14:20 19.9 °C 14.1 °C 1006.3 hPa ENE 2.1 km/h 5.6 km/h 69 % 0 mm
14:25 19.8 °C 13.7 °C 1006.3 hPa ENE 1.9 km/h 5.6 km/h 68 % 0 mm
14:30 19.8 °C 13.4 °C 1006.3 hPa ENE 3.1 km/h 5.6 km/h 67 % 0 mm
14:35 19.8 °C 13.3 °C 1006.7 hPa ENE 3.2 km/h 5.6 km/h 66 % 0 mm
14:40 19.9 °C 13.6 °C 1006.3 hPa ENE 2.7 km/h 5.6 km/h 67 % 0 mm
14:45 19.9 °C 13.8 °C 1006.3 hPa East 2.7 km/h 5.6 km/h 68 % 0 mm
14:50 19.8 °C 13.1 °C 1006.3 hPa ENE 4.8 km/h 6.4 km/h 65 % 0 mm
14:55 19.9 °C 14.1 °C 1006.3 hPa East 2.7 km/h 4.8 km/h 69 % 0 mm
15:00 20 °C 14.1 °C 1006 hPa ENE 2.9 km/h 4.8 km/h 69 % 0 mm
15:06 20 °C 13.4 °C 1006.3 hPa ENE 2.3 km/h 5.6 km/h 66 % 0 mm
15:10 20 °C 13.7 °C 1006.7 hPa ENE 2.6 km/h 6.4 km/h 67 % 0 mm
15:16 19.9 °C 13.6 °C 1006.7 hPa ENE 4.8 km/h 16.1 km/h 67 % 0 mm
15:21 19.8 °C 13.4 °C 1006.7 hPa ENE 4.8 km/h 12.9 km/h 67 % 0 mm
15:26 19.6 °C 13.7 °C 1007 hPa ENE 4.8 km/h 14.5 km/h 69 % 0 mm
15:31 19.5 °C 13.7 °C 1007 hPa ENE 3.2 km/h 11.3 km/h 69 % 0 mm
15:36 19.4 °C 13.4 °C 1007.3 hPa ENE 3.2 km/h 12.9 km/h 68 % 0 mm
15:41 19.4 °C 13.6 °C 1007.3 hPa ENE 3.2 km/h 6.4 km/h 69 % 0 mm
15:46 19.3 °C 13.4 °C 1007 hPa ENE 4.8 km/h 14.5 km/h 69 % 0 mm
15:51 19.2 °C 14.1 °C 1007 hPa ENE 5 km/h 11.1 km/h 72 % 0 mm
15:56 19.2 °C 13.8 °C 1007 hPa ENE 9.7 km/h 16.1 km/h 71 % 0 mm
16:01 19.1 °C 14.2 °C 1007.3 hPa ENE 6 km/h 6.4 km/h 73 % 0 mm
16:06 19 °C 14.1 °C 1007.3 hPa NE 3.4 km/h 7.4 km/h 73 % 0 mm
16:11 18.8 °C 13.9 °C 1007.3 hPa NE 6.6 km/h 11.1 km/h 73 % 0 mm
16:16 18.6 °C 13.9 °C 1007.3 hPa ENE 4.2 km/h 7.4 km/h 74 % 0 mm
16:21 18.6 °C 14.1 °C 1007 hPa East 7.4 km/h 11.1 km/h 75 % 0 mm
16:26 18.5 °C 13.8 °C 1007 hPa ENE 7.9 km/h 13 km/h 74 % 0 mm
16:31 18.5 °C 14.2 °C 1006.7 hPa ENE 8 km/h 14.8 km/h 76 % 0 mm
16:36 18.6 °C 13.6 °C 1006.3 hPa NE 7.1 km/h 13 km/h 73 % 0 mm
16:41 18.6 °C 13.7 °C 1006.7 hPa East 2.7 km/h 11.1 km/h 73 % 0 mm
16:46 18.8 °C 13.7 °C 1007 hPa East 1.3 km/h 3.7 km/h 72 % 0 mm
16:51 19.2 °C 13.6 °C 1007.3 hPa East 2.1 km/h 5.6 km/h 70 % 0 mm
16:56 19.3 °C 13.3 °C 1007.3 hPa NE 2.9 km/h 5.6 km/h 68 % 0 mm
17:01 19.6 °C 13.3 °C 1007.3 hPa East 3.7 km/h 5.6 km/h 67 % 0 mm
17:06 19.7 °C 12.9 °C 1007.3 hPa East 3.4 km/h 7.4 km/h 65 % 0 mm
17:11 19.7 °C 13.1 °C 1007 hPa East 3.2 km/h 5.6 km/h 66 % 0 mm
17:16 19.6 °C 12.3 °C 1007 hPa ESE 3.5 km/h 7.4 km/h 63 % 0 mm
17:22 19.6 °C 11.8 °C 1007 hPa East 2.6 km/h 5.6 km/h 61 % 0 mm
17:27 19.5 °C 12.3 °C 1007 hPa East 7.4 km/h 11.1 km/h 63 % 0 mm
17:32 19.4 °C 12.4 °C 1007 hPa East 2.6 km/h 5.6 km/h 64 % 0 mm
17:37 19.3 °C 13.1 °C 1007 hPa East 3.5 km/h 5.6 km/h 67 % 0 mm
17:42 19.2 °C 12.5 °C 1007 hPa East 2.6 km/h 5.6 km/h 65 % 0 mm
17:47 19.1 °C 12.4 °C 1007 hPa East 1.9 km/h 3.7 km/h 65 % 0 mm
17:52 19.1 °C 12.8 °C 1007 hPa East 1.4 km/h 3.7 km/h 67 % 0 mm
17:57 19 °C 13.2 °C 1006.7 hPa East 1.8 km/h 3.7 km/h 69 % 0 mm
18:02 19 °C 13.2 °C 1006.3 hPa ENE 3.1 km/h 5.6 km/h 69 % 0 mm
18:07 19.1 °C 13.4 °C 1006.7 hPa ENE 1.1 km/h 3.7 km/h 70 % 0 mm
18:12 19.1 °C 12.6 °C 1006.7 hPa East 1.6 km/h 3.7 km/h 66 % 0 mm
18:17 19.1 °C 12.6 °C 1006.7 hPa ENE 4.2 km/h 5.6 km/h 66 % 0 mm
18:22 18.9 °C 13.3 °C 1006.7 hPa ENE 5.6 km/h 9.3 km/h 70 % 0 mm
18:27 18.7 °C 13.1 °C 1007 hPa NE 7.1 km/h 11.1 km/h 70 % 0 mm
18:32 18.5 °C 13.2 °C 1007 hPa ENE 2.9 km/h 9.3 km/h 71 % 0 mm
18:37 18.3 °C 13.3 °C 1007 hPa ENE 8 km/h 12.9 km/h 73 % 0 mm
18:42 17.9 °C 13.2 °C 1007.3 hPa ENE 3.5 km/h 5.6 km/h 74 % 0 mm
18:47 17.8 °C 13.1 °C 1007.3 hPa Calm   3.7 km/h 74 % 0 mm
18:52 17.7 °C 13.4 °C 1007.3 hPa Calm     76 % 0 mm
18:57 17.7 °C 13.4 °C 1007.3 hPa NE 0.5 km/h 3.7 km/h 76 % 0 mm
19:02 17.6 °C 13.3 °C 1007.3 hPa East 0.3 km/h 1.9 km/h 76 % 0 mm
19:07 17.4 °C 13.3 °C 1007.3 hPa East 0.3 km/h 1.9 km/h 77 % 0 mm
19:12 17.3 °C 13.4 °C 1007.3 hPa ENE 1.6 km/h 4.8 km/h 78 % 0 mm
19:17 17.1 °C 13.4 °C 1007.3 hPa ENE 0.2 km/h 1.9 km/h 79 % 0 mm
19:23 17 °C 13.5 °C 1007.3 hPa Calm   1.9 km/h 80 % 0 mm
19:28 16.9 °C 13.4 °C 1007.3 hPa Calm   1.9 km/h 80 % 0 mm
19:33 16.8 °C 13.6 °C 1007.3 hPa ENE 1 km/h 1.9 km/h 81 % 0 mm
19:38 16.7 °C 13.6 °C 1007.3 hPa ESE 1 km/h 1.9 km/h 82 % 0 mm
19:43 16.6 °C 13.4 °C 1007.3 hPa NE 0.3 km/h 1.9 km/h 82 % 0 mm
19:48 16.3 °C 13.4 °C 1007.3 hPa ENE 2.1 km/h 5.6 km/h 83 % 0 mm
19:53 16.2 °C 13.3 °C 1007.7 hPa ENE 1 km/h 1.9 km/h 83 % 0 mm
19:58 16.1 °C 13.3 °C 1008 hPa ENE 0.2 km/h 1.9 km/h 84 % 0 mm
20:03 16 °C 13.3 °C 1008 hPa Calm   1.6 km/h 84 % 0 mm
20:08 15.9 °C 13.2 °C 1008 hPa ENE 0.5 km/h 1.9 km/h 84 % 0 mm
20:13 15.7 °C 13.2 °C 1007.7 hPa ENE 0.2 km/h 1.6 km/h 85 % 0 mm
20:18 15.7 °C 12.9 °C 1008 hPa ESE 2.3 km/h 3.7 km/h 84 % 0 mm
20:23 15.6 °C 12.9 °C 1008 hPa Calm   1.9 km/h 84 % 0 mm
20:29 15.6 °C 13.1 °C 1008.4 hPa Calm     85 % 0 mm
20:34 15.4 °C 12.9 °C 1008.4 hPa Calm     85 % 0 mm
20:39 15.4 °C 12.9 °C 1008.4 hPa Calm     85 % 0 mm
20:44 15.3 °C 12.8 °C 1008.4 hPa Calm     85 % 0 mm
20:49 15.3 °C 12.8 °C 1008.4 hPa SE 0.8 km/h 3.7 km/h 85 % 0 mm
20:54 15.3 °C 12.9 °C 1008.7 hPa SE 1.6 km/h 5.6 km/h 86 % 0 mm
20:59 15.2 °C 12.7 °C 1008.7 hPa SE 4.7 km/h 5.6 km/h 85 % 0 mm
21:04 15.1 °C 12.4 °C 1008.7 hPa SE 1.6 km/h 5.6 km/h 84 % 0 mm
21:09 15.1 °C 12.1 °C 1009 hPa SE 3.5 km/h 7.4 km/h 82 % 0 mm
21:14 15.1 °C 12.1 °C 1009 hPa SE 1.3 km/h 5.6 km/h 82 % 0 mm
21:19 15.1 °C 12 °C 1008.7 hPa Calm     82 % 0 mm
21:24 15.1 °C 12 °C 1009 hPa Calm   5.6 km/h 82 % 0 mm
21:29 15 °C 11.8 °C 1008.7 hPa SE 0.3 km/h 1.9 km/h 81 % 0 mm
21:34 14.9 °C 11.7 °C 1008.7 hPa SE 2.9 km/h 5.6 km/h 81 % 0 mm
21:39 14.9 °C 11.5 °C 1008.7 hPa Calm   1.9 km/h 80 % 0 mm
21:44 14.9 °C 11.5 °C 1008.7 hPa Calm     80 % 0 mm
21:49 14.9 °C 11.5 °C 1008.7 hPa SE 0.5 km/h 3.2 km/h 80 % 0 mm
21:54 14.9 °C 11.4 °C 1008.4 hPa Calm     80 % 0 mm
21:59 14.8 °C 11.4 °C 1008.4 hPa Calm     80 % 0 mm
22:04 14.8 °C 11.4 °C 1008.4 hPa Calm     80 % 0 mm
22:09 14.8 °C 11.3 °C 1008.7 hPa Calm     80 % 0 mm
22:14 14.7 °C 11.5 °C 1008.7 hPa SE 0.3 km/h 1.6 km/h 81 % 0 mm
22:19 14.7 °C 11.4 °C 1008.7 hPa Calm     81 % 0 mm
22:24 14.6 °C 11.4 °C 1008.7 hPa Calm   1.9 km/h 81 % 0 mm
22:29 14.6 °C 11.3 °C 1008.7 hPa Calm     81 % 0 mm
22:34 14.5 °C 11.3 °C 1009 hPa Calm     81 % 0 mm
22:39 14.5 °C 11.4 °C 1009 hPa Calm     82 % 0 mm
22:44 14.4 °C 11.3 °C 1009 hPa Calm     82 % 0 mm
22:50 14.3 °C 11.3 °C 1008.7 hPa Calm   3.7 km/h 82 % 0 mm
22:55 14.3 °C 11.3 °C 1009 hPa SE 1.4 km/h 3.7 km/h 82 % 0 mm
22:57 14.3 °C 11.2 °C 1009 hPa Calm     82 % 0 mm
23:02 14.3 °C 11.2 °C 1009 hPa Calm     82 % 0 mm
23:07 14.2 °C 11.2 °C 1009 hPa SE 0.3 km/h 1.6 km/h 82 % 0 mm
23:17 14.2 °C 11.5 °C 1008.7 hPa SE 2.3 km/h 3.7 km/h 84 % 0 mm
23:22 14.2 °C 11.5 °C 1008.7 hPa ESE 1.8 km/h 3.7 km/h 84 % 0 mm
23:27 14.2 °C 11.5 °C 1008.7 hPa ESE 1.1 km/h 3.7 km/h 84 % 0 mm
23:32 14.2 °C 11.7 °C 1008.7 hPa ESE 1.6 km/h 3.7 km/h 85 % 0 mm
23:37 14.2 °C 11.5 °C 1008.7 hPa ESE 0.8 km/h 3.7 km/h 84 % 0 mm
23:42 14.2 °C 11.7 °C 1008.7 hPa ESE 0.2 km/h 1.9 km/h 85 % 0 mm
23:47 14.2 °C 11.7 °C 1008.7 hPa ESE 1.3 km/h 1.9 km/h 85 % 0 mm
23:53 14.2 °C 11.7 °C 1009 hPa East 0.8 km/h 5.6 km/h 85 % 0 mm
23:58 14.2 °C 11.7 °C 1008.7 hPa ESE 0.5 km/h 5.6 km/h 85 % 0 mm
Crab Meadow Weather
Compliments of Weather Underground - 3 mb

Script developed by  Jim McMurry - jmcmurry@mwt.net Adapted for the template by  Wim van der Kuil - Leuven-Template.eu

Weather Terms: Flood Watch - Conditions are favorable for flash flooding in and close to the watch area. These watches are issued by the Weather Forecast Office in Upton and are usually for the first 12 to 24 hours of a forecast.